STARLINK-36979, 67996

Orbit data source: Space-Track

STARLINK-36979, 67996 is a payload satellite owned by SpaceX/Seattle (US) in LEO that was launched on Fri, 27 Feb 2026 UTC via an FALCON 9 launch vehicle from the Air Force Eastern Test Range (AFETR). Payload-class satellites include a variety of spacecraft equipped with specific instruments for various scientific and technological missions. These include communications satellites like Starlink; space stations such as the ISS; scientific satellites like the Hubble; Earth observation satellites from companies like Planet Labs, Umbra, and HawkEye 360; GPS; miniature CubeSats for education and research; and military/defense satellites.

Loading next visibility...
Identifier
67996, 2026-039L
Orbit
LEO
Country
Flag of USUS
Related business
Manufacturer
SpaceX/Seattle
Mission
Operational Commercial Communications
Bus & Motor
STARLINK V2MO, Unknown motor
Mass
575 kg wet, ~530 kg dry
Launch date (UTC)
2026-02-27 (2 months ago)
Launch vehicle
FALCON 9
Launch site
Air Force Eastern Test Range (AFETR)
Object type
Payload
Rocket body
Debris
Shape & HBR
Box + 2 Pan, 17.7 m
Radar Cross Section
36.964 m²

Expand to show TLE details & history
Last TLE update: 8 hours ago

TLE from 8 hours ago
0 STARLINK-36979
1 67996U 26039L   26119.29593567  .00013496  00000-0  49907-3 0  9997
2 67996  43.0019 123.0627 0001844 279.7409  80.3235 15.27578862  9441
Epoch: 2026-04-29T07:06Z
TLE epoch observation values (Epoch: 2026-04-29T07:06:08.841Z)
Latitude
0.00001°
Longitude
159.26693°
Altitude
482.616 km
Speed
7.626 km/s
True Right ascension
08h 12m 15s
True Declination
0° 00' 00"
Sunlit
Object was in daylight at epoch
Visualization orbit readout
Latitude
Unknown
Longitude
Unknown
Altitude
Unknown
Speed
Unknown
Apparent Right ascension
Unknown
Apparent Declination
Unknown
Sunlit
N/A
Visualization observer readout
Local Sidereal Time
22:53:46
Azimuth
Unknown
Elevation
Unknown
Doppler factor
Unknown
Orbital elements
Apogee altitude
486.263 km
Perigee altitude
483.732 km
Semi-major axis
6,863.134 km
Eccentricity
0.00018
Inclination
43.0019°
RAAN
123.0627°
Arg. of periapsis
279.7409°
True anomaly
80.34433°
Mean anomaly
80.3235°
Eccentric anomaly
80.33392°
Mean motion
3.81733 °/min
Orbital period
94.31 mins
BSTAR
0.00049907
Loading maneuver chart data...
Computing Atmospheric mass density...
Loading historical data...
Loading historical data...
Loading historical data...
Loading historical data...
Loading historical data...
Loading historical data...
Loading historical data...

Documentation

Showing up to 5 results
|